This demonstration page uses our WeatherBlox Daily Observations layout. Learn more.

Left ArrowRight Arrow

Hourly Observations for October 28, 2022

Temp ( °F °C ) Dew Point ( °F °C ) Humidity (%) Winds ( mph kmh ) Pressure ( in mb ) Visibility ( mi km ) Precip ( " mm )
12:15 am 00:15 Cloudy with Light Rain 46 8 46 8 100 100 S 5 7 30.24 1024 10 16 0.01 0.13
12:25 am 00:25 Cloudy with Light Rain 46 8 46 8 100 100 S 5 7 30.25 1024 10 16 0.01 0.13
12:56 am 00:56 Cloudy with Light Rain 47 8.3 46 7.8 97 97 SE 5 7 30.24 1024 10 16 0.01 0.13
1:24 am 01:24 Cloudy with Light Rain 46 8 46 8 100 100 SE 3 6 30.26 1025 10 16 0.01 0.13
1:56 am 01:56 Cloudy 47 8.3 46 7.8 97 97 Calm 30.23 1024 10 16 0.01 0.25
2:03 am 02:03 Cloudy 46 8 46 8 100 100 S 3 6 30.24 1024 10 16 0.00 0.00
2:56 am 02:56 Cloudy 45 7.2 44 6.7 97 97 S 3 6 30.24 1024 8 13 0.00 0.00
3:56 am 03:56 Cloudy 46 7.8 45 7.2 96 96 Calm 30.25 1024 7 11 0.00 0.00
4:29 am 04:29 Cloudy 46 8 46 8 100 100 Calm 30.27 1025 10 16 0.00 0.00
4:56 am 04:56 Cloudy 47 8.3 45 7.2 93 93 Calm 30.25 1025 10 16 0.00 0.00
5:56 am 05:56 Cloudy 47 8.3 45 7.2 93 93 Calm 30.26 1025 10 16 0.00 0.00
6:56 am 06:56 Cloudy 47 8.3 46 7.8 97 97 NNW 5 7 30.28 1025 10 16 0.00 0.00
7:10 am 07:10 Cloudy 46 8 45 7 93 93 NNW 3 6 30.29 1026 10 16 0.00 0.00
8:00 am 08:00 Mostly Clear with Mist and Fog 45 7 45 7 100 100 Calm 30.31 1026 2 2 0.00 0.00
8:05 am 08:05 Sunny with Fog 45 7 43 6 93 93 Calm 30.32 1027 0 0 0.00 0.00
8:12 am 08:12 Partly Cloudy with Light Rain 43 6 43 6 100 100 Calm 30.33 1027 0 0 0.01 0.13
8:40 am 08:40 Cloudy with Light Rain 43 6 41 5 93 93 SSE 7 11 30.34 1027 0 0 0.01 0.13
8:56 am 08:56 Mostly Cloudy with Light Rain 43 6.1 42 5.6 97 97 S 6 9 30.33 1027 0 0 0.01 0.13
9:03 am 09:03 Mostly Cloudy with Light Rain 45 7 45 7 100 100 S 7 11 30.35 1028 1 1 0.01 0.13
9:11 am 09:11 Mostly Cloudy with Light Rain 45 7 45 7 100 100 S 9 15 30.35 1028 0 0 0.01 0.13
9:19 am 09:19 Mostly Cloudy with Mist and Fog 45 7 45 7 100 100 S 6 9 30.36 1028 3 5 0.01 0.13
9:34 am 09:34 Mostly Cloudy 46 8 46 8 100 100 S 7 11 30.35 1028 8 13 0.01 0.13
9:56 am 09:56 Cloudy 47 8.3 47 8.3 100 100 S 9 15 30.36 1028 10 16 0.01 0.13
10:16 am 10:16 Cloudy 46 8 46 8 100 100 SSW 10 17 30.37 1029 10 16 0.00 0.00
10:44 am 10:44 Cloudy 48 9 46 8 93 93 SSW 8 13 30.35 1028 10 16 0.00 0.00
10:56 am 10:56 Cloudy 49 9.4 47 8.3 93 93 SSW 7 11 30.35 1028 10 16 0.00 0.00
11:56 am 11:56 Cloudy 54 12.2 45 7.2 71 71 S 7 11 30.34 1028 10 16 0.00 0.00
12:31 pm 12:31 Partly Cloudy 54 12 45 7 71 71 SSW 7 11 30.33 1027 10 16 0.00 0.00
12:52 pm 12:52 Mostly Cloudy 55 13 46 8 72 72 SW 9 15 30.31 1026 10 16 0.00 0.00
12:56 pm 12:56 Mostly Cloudy 56 13.3 46 7.8 69 69 SW 8 13 30.33 1027 10 16 0.00 0.00
1:06 pm 13:06 Partly Cloudy 55 13 45 7 67 67 WSW 7 11 30.31 1026 10 16 0.00 0.00
1:13 pm 13:13 Mostly Cloudy 55 13 46 8 72 72 undefined N/A 30.30 1026 10 16 0.00 0.00
1:23 pm 13:23 Partly Cloudy 55 13 46 8 72 72 W 5 7 30.30 1026 10 16 0.00 0.00
1:56 pm 13:56 Mostly Sunny 57 13.9 46 7.8 67 67 WSW 7 11 30.31 1027 10 16 0.00 0.00
2:56 pm 14:56 Sunny 59 15 47 8.3 64 64 SSW 7 11 30.29 1026 10 16 0.00 0.00
3:56 pm 15:56 Mostly Sunny 60 15.6 46 7.8 60 60 SW 9 15 30.27 1025 10 16 0.00 0.00
4:56 pm 16:56 Sunny 60 15.6 46 7.8 60 60 SW 9 15 30.27 1025 10 16 0.00 0.00
5:56 pm 17:56 Sunny 58 14.4 46 7.8 65 65 SSW 9 15 30.27 1025 10 16 0.00 0.00
6:56 pm 18:56 Clear 52 11.1 44 6.7 74 74 SSW 6 9 30.28 1025 10 16 0.00 0.00
7:56 pm 19:56 Clear 49 9.4 44 6.7 83 83 SSW 6 9 30.30 1026 10 16 0.00 0.00
8:56 pm 20:56 Clear 46 7.8 43 6.1 89 89 S 5 7 30.29 1026 10 16 0.00 0.00
9:56 pm 21:56 Clear 44 6.7 41 5 89 89 S 8 13 30.29 1026 10 16 0.00 0.00
10:56 pm 22:56 Clear 45 7.2 42 5.6 90 90 SSW 5 7 30.29 1026 10 16 0.00 0.00
11:56 pm 23:56 Clear 44 6.7 41 5 89 89 S 8 13 30.27 1025 10 16 0.00 0.00

Powered by AerisWeather